Torna al catalogo

CZ-4C DEB

AttivoLEO
NORAD 43631·DEBRIS·🇨🇳 China

Lanciato Nov 20, 2013 da Taiyuan Satellite Launch Center

Loading…

Prossimi Passaggi (prossime 24 ore)

TLE

AggiornatoSource: Space-Track

Epoca: Sep 14, 2026, 00:25 UTC

1 43631U 13065G   26257.01765234  .00001828  00000-0  12747-2 0  9994
2 43631 100.5949  94.9082 0188910 322.4530  36.3556 13.92066440407021

Traccia CZ-4C DEB in tempo reale con AllMySat

Download on the App Store